Lord Howe Island Observation History
Time Wind Speed Temp Pressure Rel. Hum Rain
25/02:00pm ENE 13-16 kts 25.5°c 1014.9 hPa 71% 0.0mm
25/01:30pm ENE 12-15 kts 25.8°c 1015.1 hPa 77% 0.0mm
25/01:00pm ENE 11-14 kts 24.1°c 1015.4 hPa 74% 0.0mm
25/12:30pm ENE 13-16 kts 24.2°c 1015.7 hPa 75% 0.0mm
25/12:00pm NE 12-15 kts 24.2°c 1015.8 hPa 73% 0.0mm
25/11:30am NE 12-15 kts 25.3°c 1015.9 hPa 75% 0.0mm
25/11:00am NE 12-15 kts 24.7°c 1016.1 hPa 73% 0.0mm
25/10:30am NE 12-15 kts 25.6°c 1016.3 hPa 70% 0.0mm
25/10:00am NE 12-15 kts 25.3°c 1016.4 hPa 71% 0.0mm
25/09:30am NE 13-16 kts 25.0°c 1016.3 hPa 69% 0.0mm
25/09:00am NE 12-15 kts 25.2°c 1016.2 hPa 69% 0.0mm
25/08:30am NE 13-15 kts 24.9°c 1016.2 hPa 67% 0.0mm
25/08:00am NE 13-16 kts 24.3°c 1016.2 hPa 66% 0.0mm
25/07:30am NE 12-15 kts 23.9°c 1016.0 hPa 68% 0.0mm
25/07:00am NE 12-15 kts 23.4°c 1015.8 hPa 69% 0.0mm
25/06:30am NE 11-15 kts 22.9°c 1015.6 hPa 70% 0.0mm
25/06:00am NE 12-15 kts 22.6°c 1015.4 hPa 71% 0.0mm
25/05:30am NE 12-15 kts 22.4°c 1015.3 hPa 73% 0.0mm
25/05:00am NE 13-16 kts 22.6°c 1015.2 hPa 76% 0.0mm
25/04:30am NE 10-13 kts 22.4°c 1015.0 hPa 72% 0.0mm
25/04:00am NNE 8-12 kts 22.7°c 1015.1 hPa 64% 0.0mm
25/03:30am NE 11-14 kts 22.4°c 1015.3 hPa 69% 0.0mm
25/03:00am NE 11-15 kts 22.5°c 1015.4 hPa 69% 0.0mm
25/02:30am NE 13-17 kts 22.2°c 1015.7 hPa 70% 0.0mm
25/02:00am NE 11-16 kts 22.6°c 1016.0 hPa 72% 0.0mm
25/01:30am NE 11-17 kts 22.8°c 1016.4 hPa 64% 0.0mm
25/01:00am NE 13-16 kts 22.4°c 1016.7 hPa 62% 0.0mm
25/12:30am NE 13-17 kts 22.0°c 1016.6 hPa 65% 0.0mm
25/12:00am NE 13-16 kts 22.1°c 1016.8 hPa 65% 0.0mm
Time Wind Speed Temp Pressure Rel. Hum Rain
24/11:30pm NE 13-16 kts 22.0°c 1016.9 hPa 67% 0.0mm
24/11:00pm NE 14-17 kts 22.3°c 1017.2 hPa 64% 0.0mm
24/10:30pm ENE 15-18 kts 22.6°c 1017.6 hPa 66% 0.0mm
24/10:00pm NE 16-21 kts 22.6°c 1018.0 hPa 64% 0.0mm
24/09:30pm NE 15-19 kts 22.7°c 1017.9 hPa 63% 0.0mm
24/09:00pm ENE 14-18 kts 22.5°c 1017.4 hPa 71% 0.0mm
24/08:30pm ENE 15-19 kts 22.6°c 1017.1 hPa 69% 0.0mm
24/08:00pm ENE 14-17 kts 22.6°c 1016.8 hPa 70% 0.0mm
24/07:30pm ENE 12-15 kts 22.6°c 1016.6 hPa 72% 0.0mm
24/07:00pm ENE 12-16 kts 22.9°c 1016.4 hPa 69% 0.0mm
24/06:30pm ENE 13-16 kts 23.2°c 1016.4 hPa 71% 0.0mm
24/06:00pm ENE 13-16 kts 23.6°c 1016.1 hPa 72% 0.0mm
24/05:30pm ENE 13-15 kts 23.9°c 1016.0 hPa 71% 0.0mm
24/05:00pm NE 12-15 kts 24.7°c 1016.1 hPa 74% 0.0mm
24/04:30pm ENE 11-13 kts 24.9°c 1016.2 hPa 71% 0.0mm
24/04:00pm NE 11-13 kts 25.5°c 1016.3 hPa 72% 0.0mm
24/03:30pm NE 11-13 kts 25.5°c 1016.7 hPa 72% 0.0mm
24/03:00pm ENE 10-13 kts 25.8°c 1017.0 hPa 72% 0.0mm
24/02:30pm NE 11-13 kts 25.7°c 1017.4 hPa 70% 0.0mm
24/02:00pm NE 12-15 kts 25.2°c 1017.5 hPa 68% 0.0mm
24/01:30pm NE 12-15 kts 24.6°c 1017.7 hPa 72% 0.0mm
24/01:00pm NE 12-15 kts 24.9°c 1017.9 hPa 74% 0.0mm
24/12:30pm NE 11-14 kts 25.0°c 1018.2 hPa 70% 0.0mm
24/12:00pm NE 11-13 kts 25.7°c 1018.3 hPa 72% 0.0mm
24/11:30am NE 10-12 kts 25.3°c 1018.5 hPa 71% 0.0mm
24/11:00am NE 9-11 kts 25.6°c 1018.5 hPa 65% 0.0mm
24/10:30am NE 9-11 kts 25.5°c 1018.6 hPa 66% 0.0mm
24/10:00am NE 9-12 kts 25.2°c 1018.6 hPa 64% 0.0mm
24/09:30am NE 9-11 kts 25.1°c 1018.5 hPa 68% 0.0mm
24/09:00am NE 8-10 kts 24.9°c 1018.4 hPa 66% 0.0mm
24/08:30am NE 8-10 kts 24.7°c 1018.4 hPa 63% 0.0mm
24/08:00am NE 8-10 kts 24.5°c 1018.2 hPa 63% 0.0mm
24/07:30am NNE 8-10 kts 24.3°c 1018.1 hPa 63% 0.0mm
24/07:00am N 5-8 kts 23.3°c 1018.0 hPa 66% 0.0mm
24/06:30am NNE 5-6 kts 22.6°c 1017.8 hPa 72% 0.0mm
24/06:00am NNE 5-7 kts 22.0°c 1017.4 hPa 71% 0.0mm
24/05:30am NNE 8-10 kts 22.0°c 1017.1 hPa 71% 0.0mm
24/05:00am NE 9-12 kts 22.1°c 1016.8 hPa 75% 0.0mm
24/04:30am NE 7-9 kts 22.0°c 1016.7 hPa 71% 0.0mm
24/04:00am NE 9-10 kts 21.7°c 1016.7 hPa 75% 0.0mm
24/03:30am NE 10-13 kts 21.9°c 1016.9 hPa 72% 0.0mm
24/03:00am NNE 12-15 kts 22.3°c 1017.2 hPa 71% 0.0mm
24/02:30am NE 12-15 kts 22.3°c 1017.5 hPa 70% 0.0mm
24/02:00am NNE 9-12 kts 22.8°c 1017.9 hPa 69% 0.0mm
24/01:30am NE 11-13 kts 22.5°c 1018.1 hPa 73% 0.0mm
24/01:00am NE 11-14 kts 22.2°c 1018.3 hPa 73% 0.0mm
24/12:30am NE 11-14 kts 22.2°c 1018.4 hPa 72% 0.0mm
24/12:00am NE 11-14 kts 22.1°c 1018.5 hPa 73% 0.0mm
Time Wind Speed Temp Pressure Rel. Hum Rain
23/11:30pm NE 11-14 kts 22.3°c 1018.6 hPa 72% 0.0mm
23/11:00pm ENE 9-11 kts 22.1°c 1018.8 hPa 71% 0.0mm
23/10:30pm ENE 11-14 kts 22.1°c 1018.7 hPa 70% 0.0mm
23/10:00pm ENE 11-14 kts 22.2°c 1018.8 hPa 73% 0.0mm
23/09:30pm ENE 12-14 kts 22.3°c 1018.6 hPa 71% 0.0mm
23/09:00pm ENE 11-15 kts 22.3°c 1018.5 hPa 70% 0.0mm
23/08:30pm NE 12-15 kts 22.4°c 1018.1 hPa 69% 0.0mm
23/08:00pm ENE 11-14 kts 22.5°c 1017.8 hPa 71% 0.0mm
23/07:30pm ENE 10-12 kts 22.3°c 1017.6 hPa 71% 0.0mm
23/07:00pm NE 10-13 kts 23.0°c 1017.3 hPa 69% 0.0mm
23/06:30pm ENE 10-12 kts 23.3°c 1017.0 hPa 68% 0.0mm
23/06:00pm NE 9-12 kts 23.7°c 1016.9 hPa 65% 0.0mm
23/05:30pm NE 8-11 kts 23.9°c 1016.8 hPa 59% 0.0mm
23/05:00pm ENE 9-11 kts 24.1°c 1016.8 hPa 58% 0.0mm
23/04:30pm ENE 7-10 kts 24.4°c 1017.0 hPa 61% 0.0mm
23/04:00pm ENE 8-10 kts 24.3°c 1017.0 hPa 61% 0.0mm
23/03:30pm NE 9-11 kts 24.5°c 1017.1 hPa 61% 0.0mm
23/03:00pm NE 8-11 kts 24.3°c 1017.1 hPa 60% 0.0mm
23/02:30pm ENE 8-10 kts 24.5°c 1017.4 hPa 61% 0.0mm
23/02:00pm NE 8-10 kts 24.6°c 1017.5 hPa 63% 0.0mm
23/01:30pm NE 8-11 kts 24.6°c 1017.6 hPa 61% 0.0mm
23/01:00pm NE 7-9 kts 24.6°c 1017.7 hPa 61% 0.0mm
23/12:30pm NE 7-9 kts 24.7°c 1017.7 hPa 66% 0.0mm
23/12:00pm NE 8-10 kts 24.8°c 1017.8 hPa 62% 0.0mm
23/11:30am NE 8-10 kts 24.5°c 1017.8 hPa 61% 0.0mm
23/11:00am NE 7-10 kts 24.6°c 1017.9 hPa 63% 0.0mm
23/10:30am NE 7-9 kts 24.2°c 1018.0 hPa 59% 0.0mm
23/10:00am NE 8-10 kts 24.2°c 1017.8 hPa 59% 0.0mm
23/09:30am NE 9-10 kts 24.1°c 1017.6 hPa 55% 0.0mm
23/09:00am NE 11-13 kts 24.1°c 1017.3 hPa 56% 0.0mm
23/08:30am NE 11-13 kts 24.0°c 1016.9 hPa 56% 0.0mm
23/08:00am NE 8-11 kts 23.6°c 1016.8 hPa 57% 0.0mm
23/07:30am NE 8-11 kts 23.0°c 1016.7 hPa 60% 0.0mm
23/07:00am NE 7-9 kts 22.4°c 1016.5 hPa 60% 0.0mm
23/06:30am NE 5-7 kts 21.5°c 1016.5 hPa 67% 0.0mm
23/06:00am NE 6-8 kts 20.0°c 1016.3 hPa 73% 0.0mm
23/05:30am NE 5-6 kts 18.6°c 1016.2 hPa 75% 0.0mm
23/05:00am NE 5-7 kts 19.9°c 1016.0 hPa 71% 0.0mm
23/04:30am NNE 7-9 kts 21.0°c 1015.8 hPa 69% 0.0mm
23/04:00am NE 7-9 kts 20.9°c 1015.4 hPa 70% 0.0mm
23/03:30am NE 7-9 kts 20.8°c 1015.3 hPa 72% 0.0mm
23/03:00am NE 6-9 kts 20.6°c 1015.4 hPa 72% 0.0mm
23/02:30am NE 8-10 kts 21.1°c 1015.2 hPa 72% 0.0mm
23/02:00am NE 9-11 kts 21.0°c 1015.2 hPa 71% 0.0mm
23/01:30am ENE 9-11 kts 20.8°c 1015.5 hPa 75% 0.0mm
23/01:00am NE 10-14 kts 21.3°c 1015.9 hPa 73% 0.0mm
23/12:30am NE 9-13 kts 21.3°c 1016.1 hPa 73% 0.0mm
23/12:00am NE 9-11 kts 21.5°c 1016.4 hPa 72% 0.0mm